ONEWEB-0343 (49209 NORAD) Tracking and Keplerian Element Data

This shows tracking and keplerian element data for the satellite.

Feedback or suggestion? Click here.




ElementValue
Catalog49209
NameONEWEB-0343
Epoch Orbit591
Epoch Day288.25002315
Epoch Year2021
RAAN317.7895
Inclination87.4755
Eccentricity0.0021763
Argument of Perigee186.6705
Mean Anonmoly60.263
Mean Motion14.92891542
Decay Rate-0.01358331
L11 49209U 21083Z 21288.25002315 -.01358331 00000-0 -14208+0 0 9997
L22 49209 87.4755 317.7895 0021763 186.6705 60.2630 14.92891542 5911

Live tracking and technical data element details for ONEWEB-0343 (NORAD 49209). ONEWEB-0343 can be tracked NOW for your location showing map with azimuth and elevation plus other details from your city location.

Track the satellite on the map from your city or location and see movement details for azimuth, elevation, latitude, longitude, range, height, and movement on the map or in text.







IsCatalogInMostPopularTable: catalog: 49209, numindb: 10
Update: records affected: 1



GetName: 49209 ONEWEB-0343

Hit Count: updated at: Tue, 19 Oct 2021 09:43:32 GMT